カタログに戻る

STARLINK-3577

運用中通信VLEO
NORAD 51884·PAYLOAD·🇺🇸 United States

打ち上げ Mar 3, 2022 から Cape Canaveral Space Force Station

Loading…

次のパス (今後24時間)

TLE

最新Source: CelesTrak SupGP

元期: Sep 15, 2026, 02:52 UTC

1 51884C 22022AJ  26258.11993056 -.00022857  00000+0 -67534-3 0  2582
2 51884  53.1579 215.2145 0001385  87.7624 204.0278 15.34400381    12

AllMySatでSTARLINK-3577をリアルタイム追跡

Download on the App Store